Wetterdaten: Woche 26.01.09 - 01.02.09 (KW5)
Datum Zeit Temp. Innen Temp. Aussen Feuchte Inne Feuchte Auss Luftdruck Regen ab 0,1 Wind
26.01.2009 00:00 16,8 C 1,0 C 40 % 83 % 997,5 hPa 0,0 l/m 0,0 km/h (0 Bft)
26.01.2009 01:00 16,6 C 0,9 C 40 % 84 % 997,5 hPa 0,0 l/m 0,1 km/h (0 Bft)
26.01.2009 02:00 16,6 C 0,7 C 40 % 84 % 998,3 hPa 0,0 l/m 0,0 km/h (0 Bft)
26.01.2009 03:00 16,5 C 0,2 C 40 % 84 % 998,5 hPa 0,0 l/m 0,0 km/h (0 Bft)
26.01.2009 04:00 16,4 C 0,4 C 40 % 85 % 998,5 hPa 0,0 l/m 0,0 km/h (0 Bft)
26.01.2009 05:00 16,4 C 0,2 C 40 % 84 % 998,7 hPa 0,0 l/m 0,0 km/h (0 Bft)
26.01.2009 06:00 16,4 C -0,2 C 40 % 84 % 999,5 hPa 0,0 l/m 0,0 km/h (0 Bft)
26.01.2009 07:00 16,4 C -0,5 C 39 % 84 % 999,5 hPa 0,0 l/m 0,0 km/h (0 Bft)
26.01.2009 08:00 16,3 C -0,5 C 39 % 84 % 1000,2 hPa 0,0 l/m 0,0 km/h (0 Bft)
26.01.2009 09:00 16,3 C -0,2 C 39 % 84 % 1000,5 hPa 0,0 l/m 0,0 km/h (0 Bft)
26.01.2009 10:00 16,4 C 0,8 C 41 % 84 % 1001,4 hPa 0,0 l/m 0,1 km/h (0 Bft)
26.01.2009 11:00 16,5 C 2,9 C 42 % 80 % 1001,5 hPa 0,0 l/m 0,0 km/h (0 Bft)
26.01.2009 12:00 16,6 C 4,9 C 42 % 74 % 1001,4 hPa 0,0 l/m 1,0 km/h (0 Bft)
26.01.2009 13:00 16,7 C 6,3 C 41 % 69 % 1001,4 hPa 0,0 l/m 0,7 km/h (0 Bft)
26.01.2009 14:00 16,7 C 7,3 C 41 % 64 % 1001,4 hPa 0,0 l/m 0,0 km/h (0 Bft)
26.01.2009 15:00 16,7 C 7,2 C 40 % 64 % 1001,5 hPa 0,0 l/m 0,4 km/h (0 Bft)
26.01.2009 16:00 16,6 C 6,0 C 40 % 65 % 1002,4 hPa 0,0 l/m 0,0 km/h (0 Bft)
26.01.2009 17:00 16,7 C 4,1 C 42 % 69 % 1002,9 hPa 0,0 l/m 0,0 km/h (0 Bft)
26.01.2009 18:00 16,8 C 2,1 C 43 % 72 % 1003,8 hPa 0,0 l/m 0,0 km/h (0 Bft)
26.01.2009 19:00 16,7 C 0,6 C 42 % 75 % 1004,5 hPa 0,0 l/m 0,0 km/h (0 Bft)
26.01.2009 20:00 16,6 C -0,4 C 41 % 77 % 1005,3 hPa 0,0 l/m 0,0 km/h (0 Bft)
26.01.2009 21:00 16,5 C -0,9 C 41 % 78 % 1006,2 hPa 0,0 l/m 0,0 km/h (0 Bft)
26.01.2009 22:00 16,5 C -1,3 C 40 % 79 % 1006,5 hPa 0,0 l/m 0,0 km/h (0 Bft)
26.01.2009 23:00 16,4 C -1,5 C 40 % 80 % 1007,6 hPa 0,0 l/m 0,0 km/h (0 Bft)
27.01.2009 00:00 16,3 C -1,6 C 40 % 81 % 1007,8 hPa 0,0 l/m 0,0 km/h (0 Bft)
27.01.2009 01:00 16,2 C -1,6 C 39 % 81 % 1008,6 hPa 0,0 l/m 0,0 km/h (0 Bft)
27.01.2009 02:00 16,1 C -1,8 C 39 % 82 % 1008,7 hPa 0,0 l/m 0,0 km/h (0 Bft)
27.01.2009 03:00 16,0 C -1,9 C 39 % 82 % 1009,5 hPa 0,0 l/m 0,0 km/h (0 Bft)
27.01.2009 04:00 16,0 C -1,9 C 39 % 83 % 1009,7 hPa 0,0 l/m 0,0 km/h (0 Bft)
27.01.2009 05:00 15,9 C -2,2 C 38 % 83 % 1010,6 hPa 0,0 l/m 0,0 km/h (0 Bft)
27.01.2009 06:00 15,9 C -2,0 C 38 % 84 % 1010,7 hPa 0,0 l/m 0,0 km/h (0 Bft)
27.01.2009 07:00 15,8 C -1,5 C 38 % 84 % 1011,6 hPa 0,0 l/m 0,0 km/h (0 Bft)
27.01.2009 08:00 15,8 C -1,4 C 38 % 85 % 1012,3 hPa 0,0 l/m 0,0 km/h (0 Bft)
27.01.2009 09:00 15,8 C -1,5 C 38 % 85 % 1013,2 hPa 0,0 l/m 0,0 km/h (0 Bft)
27.01.2009 10:00 15,8 C -1,1 C 38 % 86 % 1013,6 hPa 0,0 l/m 0,0 km/h (0 Bft)
27.01.2009 11:00 15,8 C -0,1 C 38 % 86 % 1013,6 hPa 0,0 l/m 0,0 km/h (0 Bft)
27.01.2009 12:00 15,9 C 1,7 C 38 % 86 % 1013,8 hPa 0,0 l/m 0,0 km/h (0 Bft)
27.01.2009 13:00 16,0 C 3,4 C 39 % 81 % 1014,0 hPa 0,0 l/m 0,0 km/h (0 Bft)
27.01.2009 14:00 16,1 C 3,8 C 39 % 77 % 1014,5 hPa 0,0 l/m 0,0 km/h (0 Bft)
27.01.2009 15:00 16,2 C 3,5 C 39 % 76 % 1014,5 hPa 0,0 l/m 0,0 km/h (0 Bft)
27.01.2009 16:00 16,1 C 2,5 C 39 % 77 % 1015,3 hPa 0,0 l/m 0,0 km/h (0 Bft)
27.01.2009 17:00 16,2 C 1,5 C 39 % 79 % 1015,9 hPa 0,0 l/m 0,0 km/h (0 Bft)
27.01.2009 18:00 16,2 C 0,8 C 38 % 79 % 1016,6 hPa 0,0 l/m 0,0 km/h (0 Bft)
27.01.2009 19:00 16,2 C 0,1 C 38 % 80 % 1016,6 hPa 0,0 l/m 0,0 km/h (0 Bft)
27.01.2009 20:00 16,1 C -0,1 C 38 % 81 % 1016,7 hPa 0,0 l/m 0,0 km/h (0 Bft)
27.01.2009 21:00 16,1 C 0,2 C 39 % 82 % 1017,1 hPa 0,0 l/m 0,0 km/h (0 Bft)
27.01.2009 22:00 16,3 C 0,4 C 39 % 82 % 1017,5 hPa 0,0 l/m 0,0 km/h (0 Bft)
27.01.2009 23:00 16,2 C 0,3 C 38 % 82 % 1017,6 hPa 0,0 l/m 0,0 km/h (0 Bft)
28.01.2009 00:00 16,1 C -0,6 C 38 % 81 % 1017,6 hPa 0,0 l/m 0,0 km/h (0 Bft)
28.01.2009 01:00 16,0 C -1,3 C 37 % 82 % 1017,6 hPa 0,0 l/m 0,0 km/h (0 Bft)
28.01.2009 02:00 15,9 C -1,6 C 37 % 82 % 1017,6 hPa 0,0 l/m 0,0 km/h (0 Bft)
28.01.2009 03:00 15,8 C -1,8 C 37 % 83 % 1017,6 hPa 0,0 l/m 0,0 km/h (0 Bft)
28.01.2009 04:00 15,8 C -2,1 C 37 % 83 % 1017,8 hPa 0,0 l/m 0,0 km/h (0 Bft)
28.01.2009 05:00 15,7 C -2,5 C 37 % 83 % 1018,2 hPa 0,0 l/m 0,0 km/h (0 Bft)
28.01.2009 06:00 15,7 C -2,9 C 36 % 83 % 1017,6 hPa 0,0 l/m 0,0 km/h (0 Bft)
28.01.2009 07:00 15,6 C -3,3 C 36 % 84 % 1018,0 hPa 0,0 l/m 0,0 km/h (0 Bft)
28.01.2009 08:00 15,6 C -3,7 C 36 % 84 % 1018,6 hPa 0,0 l/m 0,0 km/h (0 Bft)
28.01.2009 09:00 15,6 C -3,4 C 36 % 84 % 1018,6 hPa 0,0 l/m 0,0 km/h (0 Bft)
28.01.2009 10:00 15,8 C -1,5 C 36 % 85 % 1018,6 hPa 0,0 l/m 0,0 km/h (0 Bft)
28.01.2009 11:00 15,9 C 1,2 C 36 % 84 % 1018,6 hPa 0,0 l/m 0,0 km/h (0 Bft)
28.01.2009 12:00 16,0 C 3,6 C 36 % 77 % 1018,5 hPa 0,0 l/m 0,1 km/h (0 Bft)
28.01.2009 13:00 16,0 C 4,9 C 36 % 70 % 1017,9 hPa 0,0 l/m 0,0 km/h (0 Bft)
28.01.2009 14:00 16,0 C 5,4 C 37 % 66 % 1017,7 hPa 0,0 l/m 0,1 km/h (0 Bft)
28.01.2009 15:00 16,1 C 4,5 C 37 % 66 % 1018,4 hPa 0,0 l/m 0,0 km/h (0 Bft)
28.01.2009 16:00 16,1 C 3,3 C 37 % 69 % 1018,5 hPa 0,0 l/m 0,0 km/h (0 Bft)
28.01.2009 17:00 16,2 C 1,7 C 37 % 71 % 1018,5 hPa 0,0 l/m 0,0 km/h (0 Bft)
28.01.2009 18:00 16,0 C 0,5 C 37 % 74 % 1018,8 hPa 0,0 l/m 0,0 km/h (0 Bft)
28.01.2009 19:00 16,0 C -0,4 C 37 % 75 % 1019,5 hPa 0,0 l/m 0,0 km/h (0 Bft)
28.01.2009 20:00 16,0 C -0,9 C 37 % 77 % 1019,6 hPa 0,0 l/m 0,0 km/h (0 Bft)
28.01.2009 21:00 16,0 C -1,2 C 37 % 78 % 1019,6 hPa 0,0 l/m 0,0 km/h (0 Bft)
28.01.2009 22:00 15,9 C -1,0 C 37 % 80 % 1019,9 hPa 0,0 l/m 0,0 km/h (0 Bft)
28.01.2009 23:00 16,5 C -1,1 C 37 % 81 % 1020,6 hPa 0,0 l/m 0,0 km/h (0 Bft)
29.01.2009 00:00 16,2 C -1,2 C 36 % 81 % 1020,6 hPa 0,0 l/m 0,0 km/h (0 Bft)
29.01.2009 01:00 15,9 C -1,7 C 36 % 82 % 1020,5 hPa 0,0 l/m 0,0 km/h (0 Bft)
29.01.2009 02:00 15,8 C -1,9 C 36 % 82 % 1020,6 hPa 0,0 l/m 0,0 km/h (0 Bft)
29.01.2009 03:00 15,7 C -2,2 C 36 % 82 % 1020,6 hPa 0,0 l/m 0,0 km/h (0 Bft)
29.01.2009 04:00 15,6 C -2,2 C 36 % 82 % 1020,6 hPa 0,0 l/m 0,0 km/h (0 Bft)
29.01.2009 05:00 15,6 C -2,5 C 36 % 82 % 1020,6 hPa 0,0 l/m 0,0 km/h (0 Bft)
29.01.2009 06:00 15,5 C -2,9 C 36 % 82 % 1020,6 hPa 0,0 l/m 0,0 km/h (0 Bft)
29.01.2009 07:00 15,5 C -3,5 C 36 % 83 % 1020,6 hPa 0,0 l/m 0,0 km/h (0 Bft)
29.01.2009 08:00 15,4 C -3,8 C 36 % 83 % 1020,6 hPa 0,0 l/m 0,0 km/h (0 Bft)
29.01.2009 09:00 15,4 C -3,4 C 36 % 83 % 1021,6 hPa 0,0 l/m 0,0 km/h (0 Bft)
29.01.2009 10:00 15,4 C -1,9 C 36 % 84 % 1021,6 hPa 0,0 l/m 0,0 km/h (0 Bft)
29.01.2009 11:00 15,4 C -0,1 C 36 % 84 % 1021,6 hPa 0,0 l/m 0,1 km/h (0 Bft)
29.01.2009 12:00 15,4 C 1,9 C 36 % 79 % 1021,6 hPa 0,0 l/m 0,1 km/h (0 Bft)
29.01.2009 13:00 15,5 C 3,7 C 36 % 72 % 1020,6 hPa 0,0 l/m 0,0 km/h (0 Bft)
29.01.2009 14:00 15,7 C 4,5 C 36 % 68 % 1020,5 hPa 0,0 l/m 0,2 km/h (0 Bft)
29.01.2009 15:00 15,7 C 3,9 C 36 % 67 % 1020,5 hPa 0,0 l/m 0,0 km/h (0 Bft)
29.01.2009 16:00 15,8 C 2,9 C 36 % 69 % 1020,5 hPa 0,0 l/m 0,0 km/h (0 Bft)
29.01.2009 17:00 15,8 C 1,6 C 36 % 71 % 1020,7 hPa 0,0 l/m 0,0 km/h (0 Bft)
29.01.2009 18:00 15,8 C 0,2 C 36 % 73 % 1020,9 hPa 0,0 l/m 0,0 km/h (0 Bft)
29.01.2009 19:00 15,8 C -0,6 C 36 % 75 % 1021,3 hPa 0,0 l/m 0,0 km/h (0 Bft)
29.01.2009 20:00 15,8 C -0,8 C 36 % 77 % 1021,6 hPa 0,0 l/m 0,0 km/h (0 Bft)
29.01.2009 21:00 15,8 C -0,3 C 36 % 78 % 1022,4 hPa 0,0 l/m 0,0 km/h (0 Bft)
29.01.2009 22:00 15,9 C -0,3 C 36 % 78 % 1022,6 hPa 0,0 l/m 0,0 km/h (0 Bft)
29.01.2009 23:00 15,8 C -0,5 C 36 % 78 % 1022,6 hPa 0,0 l/m 0,0 km/h (0 Bft)
30.01.2009 00:00 15,6 C -0,7 C 36 % 79 % 1022,7 hPa 0,0 l/m 0,0 km/h (0 Bft)
30.01.2009 01:00 15,6 C -0,7 C 36 % 79 % 1022,6 hPa 0,0 l/m 0,1 km/h (0 Bft)
30.01.2009 02:00 15,5 C -0,8 C 35 % 79 % 1022,6 hPa 0,0 l/m 0,0 km/h (0 Bft)
30.01.2009 03:00 15,5 C -0,9 C 35 % 79 % 1022,6 hPa 0,0 l/m 0,0 km/h (0 Bft)
30.01.2009 04:00 15,4 C -1,2 C 35 % 79 % 1022,6 hPa 0,0 l/m 0,0 km/h (0 Bft)
30.01.2009 05:00 15,4 C -1,6 C 35 % 80 % 1022,6 hPa 0,0 l/m 0,1 km/h (0 Bft)
30.01.2009 06:00 15,4 C -1,9 C 36 % 80 % 1022,7 hPa 0,0 l/m 0,0 km/h (0 Bft)
30.01.2009 07:00 15,4 C -1,9 C 36 % 80 % 1023,0 hPa 0,0 l/m 0,0 km/h (0 Bft)
30.01.2009 08:00 15,4 C -1,9 C 35 % 81 % 1023,6 hPa 0,0 l/m 0,0 km/h (0 Bft)
30.01.2009 09:00 15,3 C -1,6 C 35 % 81 % 1023,6 hPa 0,0 l/m 0,0 km/h (0 Bft)
30.01.2009 10:00 15,3 C -0,1 C 35 % 80 % 1023,6 hPa 0,0 l/m 0,1 km/h (0 Bft)
30.01.2009 11:00 15,3 C 1,5 C 35 % 76 % 1023,6 hPa 0,0 l/m 0,1 km/h (0 Bft)
30.01.2009 12:00 15,3 C 3,1 C 36 % 72 % 1023,4 hPa 0,0 l/m 0,9 km/h (0 Bft)
30.01.2009 13:00 15,4 C 4,0 C 36 % 67 % 1022,5 hPa 0,0 l/m 0,1 km/h (0 Bft)
30.01.2009 14:00 15,6 C 4,6 C 36 % 64 % 1021,7 hPa 0,0 l/m 0,1 km/h (0 Bft)
30.01.2009 15:00 15,6 C 4,2 C 36 % 64 % 1021,5 hPa 0,0 l/m 0,0 km/h (0 Bft)
30.01.2009 16:00 15,7 C 3,4 C 36 % 66 % 1021,3 hPa 0,0 l/m 0,0 km/h (0 Bft)
30.01.2009 17:00 15,7 C 1,7 C 36 % 69 % 1021,5 hPa 0,0 l/m 0,0 km/h (0 Bft)
30.01.2009 18:00 15,8 C 0,4 C 36 % 72 % 1021,6 hPa 0,0 l/m 0,0 km/h (0 Bft)
30.01.2009 19:00 16,0 C -0,1 C 36 % 74 % 1021,6 hPa 0,0 l/m 0,0 km/h (0 Bft)
30.01.2009 20:00 16,0 C 0,1 C 35 % 76 % 1021,6 hPa 0,0 l/m 0,0 km/h (0 Bft)
30.01.2009 21:00 15,9 C -0,0 C 35 % 75 % 1021,6 hPa 0,0 l/m 0,0 km/h (0 Bft)
30.01.2009 22:00 15,9 C -0,1 C 35 % 75 % 1021,6 hPa 0,0 l/m 0,2 km/h (0 Bft)
30.01.2009 23:00 15,8 C -0,1 C 35 % 75 % 1021,6 hPa 0,0 l/m 0,0 km/h (0 Bft)
31.01.2009 00:00 15,6 C -0,4 C 35 % 75 % 1020,9 hPa 0,0 l/m 0,1 km/h (0 Bft)
31.01.2009 01:00 15,6 C -0,7 C 35 % 76 % 1020,6 hPa 0,0 l/m 0,2 km/h (0 Bft)
31.01.2009 02:00 15,5 C -1,1 C 35 % 77 % 1020,6 hPa 0,0 l/m 0,0 km/h (0 Bft)
31.01.2009 03:00 15,4 C -1,3 C 35 % 77 % 1020,6 hPa 0,0 l/m 0,0 km/h (0 Bft)
31.01.2009 04:00 15,4 C -1,6 C 34 % 77 % 1020,6 hPa 0,0 l/m 0,1 km/h (0 Bft)
31.01.2009 05:00 15,3 C -1,8 C 34 % 77 % 1019,9 hPa 0,0 l/m 0,4 km/h (0 Bft)
31.01.2009 06:00 15,2 C -2,0 C 34 % 77 % 1019,6 hPa 0,0 l/m 0,0 km/h (0 Bft)
31.01.2009 07:00 15,3 C -2,3 C 34 % 78 % 1019,6 hPa 0,0 l/m 0,0 km/h (0 Bft)
31.01.2009 08:00 15,4 C -2,8 C 34 % 79 % 1019,6 hPa 0,0 l/m 0,0 km/h (0 Bft)
31.01.2009 09:00 15,3 C -2,9 C 34 % 80 % 1019,5 hPa 0,0 l/m 0,0 km/h (0 Bft)
31.01.2009 10:00 15,3 C -1,2 C 34 % 80 % 1018,7 hPa 0,0 l/m 0,0 km/h (0 Bft)
31.01.2009 11:00 15,4 C 1,4 C 34 % 72 % 1018,7 hPa 0,0 l/m 0,6 km/h (0 Bft)
31.01.2009 12:00 15,4 C 3,1 C 34 % 66 % 1018,5 hPa 0,0 l/m 1,2 km/h (1 Bft)
31.01.2009 13:00 15,4 C 4,1 C 34 % 62 % 1018,5 hPa 0,0 l/m 0,8 km/h (0 Bft)
31.01.2009 14:00 15,5 C 4,6 C 34 % 60 % 1018,0 hPa 0,0 l/m 0,8 km/h (0 Bft)
31.01.2009 15:00 15,6 C 3,7 C 34 % 59 % 1017,5 hPa 0,0 l/m 1,5 km/h (1 Bft)
31.01.2009 16:00 15,6 C 2,8 C 34 % 61 % 1017,5 hPa 0,0 l/m 0,5 km/h (0 Bft)
31.01.2009 17:00 15,6 C 1,7 C 34 % 63 % 1018,0 hPa 0,0 l/m 0,0 km/h (0 Bft)
31.01.2009 18:00 15,6 C 0,9 C 34 % 66 % 1017,9 hPa 0,0 l/m 0,0 km/h (0 Bft)
31.01.2009 19:00 15,5 C 1,0 C 34 % 66 % 1017,6 hPa 0,0 l/m 0,3 km/h (0 Bft)
31.01.2009 20:00 15,6 C 0,9 C 34 % 66 % 1017,6 hPa 0,0 l/m 0,0 km/h (0 Bft)
31.01.2009 21:00 15,6 C 1,1 C 33 % 66 % 1017,6 hPa 0,0 l/m 0,0 km/h (0 Bft)
31.01.2009 22:00 15,7 C 1,3 C 33 % 64 % 1017,2 hPa 0,0 l/m 0,2 km/h (0 Bft)
31.01.2009 23:00 15,9 C 1,4 C 33 % 63 % 1016,5 hPa 0,0 l/m 0,1 km/h (0 Bft)
01.02.2009 00:00 15,9 C 1,3 C 33 % 62 % 1016,5 hPa 0,0 l/m 0,0 km/h (0 Bft)
01.02.2009 01:00 15,9 C 1,2 C 33 % 63 % 1015,5 hPa 0,0 l/m 0,0 km/h (0 Bft)
01.02.2009 02:00 15,9 C 0,8 C 33 % 65 % 1015,1 hPa 0,0 l/m 0,0 km/h (0 Bft)
01.02.2009 03:00 15,8 C 0,6 C 32 % 63 % 1014,5 hPa 0,0 l/m 0,0 km/h (0 Bft)
01.02.2009 04:00 15,6 C 0,0 C 31 % 66 % 1014,2 hPa 0,0 l/m 0,0 km/h (0 Bft)
01.02.2009 05:00 15,6 C -0,3 C 33 % 70 % 1013,6 hPa 0,0 l/m 0,0 km/h (0 Bft)
01.02.2009 06:00 15,6 C -0,4 C 33 % 72 % 1013,0 hPa 0,0 l/m 0,0 km/h (0 Bft)
01.02.2009 07:00 15,5 C -0,8 C 33 % 72 % 1012,6 hPa 0,0 l/m 0,1 km/h (0 Bft)
01.02.2009 08:00 15,4 C -1,0 C 33 % 74 % 1012,6 hPa 0,0 l/m 0,0 km/h (0 Bft)
01.02.2009 09:00 15,3 C -1,2 C 33 % 75 % 1011,9 hPa 0,0 l/m 0,4 km/h (0 Bft)
01.02.2009 10:00 15,3 C -0,9 C 32 % 70 % 1011,6 hPa 0,0 l/m 0,1 km/h (0 Bft)
01.02.2009 11:00 15,3 C -0,4 C 30 % 65 % 1011,6 hPa 0,0 l/m 0,3 km/h (0 Bft)
01.02.2009 12:00 15,3 C 0,3 C 30 % 65 % 1010,9 hPa 0,0 l/m 0,2 km/h (0 Bft)
01.02.2009 13:00 15,3 C 1,3 C 30 % 63 % 1010,4 hPa 0,0 l/m 0,2 km/h (0 Bft)
01.02.2009 14:00 15,3 C 0,3 C 30 % 65 % 1009,5 hPa 0,0 l/m 0,0 km/h (0 Bft)
01.02.2009 15:00 15,2 C 0,1 C 30 % 65 % 1009,0 hPa 0,0 l/m 0,2 km/h (0 Bft)
01.02.2009 16:00 15,2 C -0,1 C 30 % 66 % 1008,5 hPa 0,0 l/m 0,3 km/h (0 Bft)
01.02.2009 17:00 15,4 C -0,3 C 32 % 68 % 1008,5 hPa 0,0 l/m 0,9 km/h (0 Bft)
01.02.2009 18:00 15,5 C -0,3 C 35 % 69 % 1008,5 hPa 0,0 l/m 0,1 km/h (0 Bft)
01.02.2009 19:00 15,5 C -0,4 C 35 % 70 % 1008,5 hPa 0,0 l/m 0,0 km/h (0 Bft)
01.02.2009 20:00 15,4 C -0,5 C 35 % 69 % 1008,0 hPa 0,0 l/m 0,0 km/h (0 Bft)
01.02.2009 21:00 15,3 C -0,9 C 34 % 68 % 1007,2 hPa 0,0 l/m 0,7 km/h (0 Bft)
01.02.2009 22:00 15,2 C -1,1 C 33 % 70 % 1006,5 hPa 0,0 l/m 0,4 km/h (0 Bft)
01.02.2009 23:00 15,2 C -1,0 C 33 % 70 % 1006,5 hPa 0,0 l/m 0,6 km/h (0 Bft)
Min-Datum _ 01.02.09 29.01.09 01.02.09 31.01.09 26.01.09 - 26.01.09
_ Min-Zeit 23:48 08:20 11:16 14:32 00:00 - 00:00
Minimum _ 15,1 C -3,9 C 30 % 59 % 997,5 hPa - 0,0 km/h (0 Bft)
Max-Datum _ 26.01.09 26.01.09 26.01.09 27.01.09 30.01.09 26.01.09 30.01.09
_ Max-Zeit 00:00 14:46 18:10 11:44 00:04 00:00 12:42
Maximum _ 16,8 C 7,6 C 44 % 87 % 1023,6 hPa 0,0 l/m 18,3 km/h
S-SO (3 Bft)
Durchschnitt _ 15,8 C 0,2 C 36 % 76 % 1015,2 hPa #0,0 l/m 0,1 km/h (0 Bft)
© 2012 W. Hausmann